Lid_Strength_Index
0 0 0 1 2 3 4 4 7 2 1 5 4 7 6 6 5 5 6 6 7 11 10 10 10 9 8 7 7 8 6 7 10 8 7 6 6 7 7 10 10 9 9 9
-0 0 0 1 2 3 4 5 5 1 2 8 7 6 6 6 7 6 6 7 7 8 10 12 10 9 7 7 7 8 6 8 11 10 7 7 8 7 7 7 7 9 10 9
-0 0 0 1 1 3 4 5 8 4 4 4 6 7 7 7 5 6 5 6 6 7 9 8 10 10 8 7 7 7 7 8 10 11 9 7 9 8 7 7 9 9 9 8
-0 0 0 1 1 2 3 6 7 6 8 6 6 6 6 8 9 6 5 7 8 9 11 9 12 10 8 7 7 7 7 10 8 8 7 7 8 8 8 8 7 9 8 8
-0 -0 0 1 1 3 4 7 8 6 7 6 7 7 7 7 7 7 7 8 7 7 10 10 13 10 10 10 8 8 7 10 9 10 7 8 9 7 8 7 8 7 7 7
-0 -0 0 1 2 4 6 4 5 6 8 7 8 7 7 7 6 5 5 6 7 7 7 5 5 6 8 9 10 10 9 9 10 12 9 9 11 8 8 7 6 7 8 6
-0 0 0 1 2 3 4 5 7 9 10 8 8 7 6 7 6 7 5 5 6 5 3 3 4 5 7 9 9 9 10 10 10 11 10 15 8 6 6 7 6 6 6 5
0 0 0 0 2 3 4 4 7 9 11 9 8 7 7 6 6 6 6 5 3 3 4 7 9 8 9 9 9 10 9 10 11 12 12 10 8 7 7 8 8 5 6 5
0 0 0 1 2 3 3 4 4 7 11 10 7 7 6 8 7 7 5 3 2 3 6 8 12 12 10 10 11 9 9 9 11 11 13 14 8 6 6 6 10 5 5 5
1 1 1 2 2 2 3 4 4 6 10 8 7 8 8 5 6 8 6 5 5 4 7 10 11 11 8 11 10 11 11 11 13 13 13 10 6 5 5 10 11 6 5 5
1 1 2 2 2 2 3 3 3 6 9 7 6 6 7 7 6 9 6 6 5 6 9 9 9 9 8 9 8 9 10 12 13 12 13 13 6 7 8 6 5 5 5 5
1 2 2 2 2 2 2 4 4 4 8 8 5 5 4 4 4 6 5 6 6 5 7 7 8 9 8 9 11 6 10 8 10 10 11 7 6 6 6 5 6 5 5 5
1 1 2 2 2 2 2 3 5 6 9 9 9 8 5 4 3 3 8 6 5 5 3 6 7 9 7 11 9 8 6 5 8 9 8 8 7 6 6 6 6 5 5 5
1 1 2 2 2 2 2 4 5 6 9 12 8 4 6 4 4 4 4 6 5 5 6 8 8 9 5 8 7 8 7 6 7 8 7 7 7 6 6 6 6 6 5 5
1 2 2 3 3 3 2 2 3 4 8 10 9 5 5 4 4 5 5 6 7 8 9 9 10 8 8 8 7 8 5 7 9 9 6 6 6 5 5 6 6 5 5 5
2 2 3 3 3 4 3 6 3 3 5 10 12 6 6 5 5 6 6 6 6 8 10 10 9 8 11 13 11 7 7 5 5 7 5 5 5 5 5 6 6 5 5 5
2 2 3 3 3 3 5 5 4 4 5 10 12 11 7 6 6 6 6 7 8 10 12 12 12 11 11 13 15 10 10 8 7 5 5 7 6 6 5 5 5 5 5 5
2 3 3 4 4 5 5 3 4 4 7 9 13 12 9 7 9 9 8 11 11 12 12 12 13 12 13 16 12 11 10 9 9 8 6 6 4 5 6 5 5 6 6 5
3 3 3 2 3 4 5 4 5 5 7 11 12 13 12 7 9 8 9 11 13 11 13 13 13 14 15 15 13 10 7 6 6 6 7 6 6 5 5 6 6 6 6 5
3 2 3 5 3 4 4 6 6 7 8 9 11 10 11 9 8 9 9 9 11 13 11 11 14 14 9 9 9 8 7 6 6 6 6 6 6 6 5 5 6 6 5 4
1 2 3 2 3 5 4 6 7 6 8 8 7 9 10 7 10 10 8 9 10 14 10 10 13 13 10 8 8 7 7 6 5 4 5 5 5 5 5 5 4 4 3 4
2 1 1 1 4 5 7 8 7 8 9 6 7 7 6 6 6 9 7 9 8 12 7 11 15 10 8 8 8 7 7 6 6 6 5 5 5 5 5 5 5 4 5 7
-0 1 4 6 5 12 11 14 10 10 7 6 6 7 6 5 5 6 7 10 11 6 11 15 12 9 7 7 7 7 6 6 7 7 7 6 6 6 6 6 7 7 8 8
2 5 12 8 9 7 8 8 7 5 4 5 5 6 5 5 7 7 10 8 8 12 15 14 9 8 7 6 6 6 6 6 6 7 7 8 7 7 6 6 7 8 9 9
4 4 11 7 5 4 4 3 4 3 3 4 5 5 5 6 7 7 8 10 13 13 13 10 7 6 5 5 6 6 6 6 6 6 7 7 7 8 8 7 7 7 8 9
3 4 6 4 5 5 4 4 4 3 3 3 3 6 8 8 7 9 11 13 14 11 8 6 5 5 4 4 4 5 5 6 6 6 6 6 6 7 7 7 8 7 6 6
5 6 3 4 4 5 4 3 3 2 4 6 5 8 9 6 9 10 8 10 8 7 6 4 4 4 3 3 4 4 4 4 5 5 4 5 5 5 5 6 5 6 6 6